Weather History for KODX - April, 2013

Change the Weather History Date:

Tuesday, April 30, 2013

  Actual Average Record
Temperature  
Mean Temperature 57 °F 54 °F  
Max Temperature 69 °F 66 °F 86 °F (2007)
Min Temperature 44 °F 41 °F 30 °F (2005)
Degree Days  
Heating Degree Days 8 12  
Month to date heating degree days 661 489  
Since 1 July heating degree days 6602 6353  
Cooling Degree Days 0 0  
Month to date cooling degree days 1 2  
Year to date cooling degree days 1 2  
Growing Degree Days 7 (Base 50)    
Moisture  
Dew Point 36 °F    
Average Humidity 46    
Maximum Humidity 71    
Minimum Humidity 20    
Precipitation  
Precipitation T in 0.11 in 3.74 in (1906)
Month to date precipitation 2.51 2.59  
Year to date precipitation 4.74 4.85  
Sea Level Pressure  
Sea Level Pressure 29.73 in    
Wind  
Wind Speed 16 mph (North)    
Max Wind Speed 29 mph    
Max Gust Speed 36 mph    
Visibility 10 miles    
Events Rain , Thunderstorm    
T = Trace of Precipitation, MM = Missing Value Source: NWS Daily Summary

Daily Weather History Graph

Daily Weather History Graph

Search for Another Location

Airport or City:

Trip Planner

Search our weather history database for the weather conditions in past years. The results will help you decide how hot, cold, wet, or windy it might be!

Date:

Astronomy

Apr. 30, 2013 Rise Set
Actual Time 6:33 AM CDT 8:33 PM CDT
Civil Twilight 6:03 AM CDT 9:03 PM CDT
Nautical Twilight 5:26 AM CDT 9:40 PM CDT
Astronomical Twilight 4:46 AM CDT 10:20 PM CDT
Moon 12:58 AM CDT (4/30) 11:03 AM CDT (4/30)
Length of Visible Light 14h 59m
Length of Day
13h 59m
Waning Gibbous, 70% of the Moon is Illuminated
Apr 30
Waning Gibbous
May 2
Last Quarter
May 9
New
May 17
First Quarter
May 24
Full

Hourly Weather History & Observations

Time (CDT) Temp. Windchill Dew Point Humidity Pressure Visibility Wind Dir Wind Speed Gust Speed Precip Events Conditions
12:53 AM 64.9 °F - 48.9 °F 56% 29.42 in 10.0 mi South 8.1 mph - N/A   Clear
1:53 AM 64.0 °F - 51.1 °F 63% 29.42 in 10.0 mi South 9.2 mph - N/A   Clear
2:53 AM 63.0 °F - 52.0 °F 67% 29.43 in 10.0 mi SSW 11.5 mph - N/A   Clear
3:53 AM 66.0 °F - 51.1 °F 59% 29.49 in 10.0 mi NW 20.7 mph 32.2 mph N/A   Clear
4:02 AM 64.4 °F - 50.0 °F 59% 29.52 in 10.0 mi WNW 8.1 mph 26.5 mph N/A   Clear
4:53 AM 55.0 °F - 42.1 °F 62% 29.56 in 10.0 mi NNW 18.4 mph 24.2 mph N/A   Clear
5:53 AM 50.0 °F - 41.0 °F 71% 29.60 in 10.0 mi NNW 20.7 mph 32.2 mph N/A   Clear
6:53 AM 48.9 °F - 39.9 °F 71% 29.67 in 10.0 mi North 9.2 mph - N/A   Clear
7:53 AM 52.0 °F - 39.9 °F 63% 29.70 in 10.0 mi North 15.0 mph - N/A   Clear
8:53 AM 53.1 °F - 39.9 °F 61% 29.69 in 10.0 mi North 23.0 mph 28.8 mph N/A   Clear
9:53 AM 55.0 °F - 39.0 °F 55% 29.72 in 10.0 mi North 17.3 mph 21.9 mph N/A   Clear
10:53 AM 55.0 °F - 37.0 °F 51% 29.76 in 10.0 mi North 12.7 mph - N/A   Clear
11:53 AM 57.0 °F - 35.1 °F 44% 29.76 in 10.0 mi NNE 12.7 mph - N/A   Clear
12:53 PM 62.1 °F - 34.0 °F 35% 29.76 in 10.0 mi ENE 12.7 mph 18.4 mph N/A   Clear
1:53 PM 64.4 °F - 33.8 °F 32% 29.79 in 10.0 mi NNE 16.1 mph 20.7 mph N/A   Clear
2:53 PM 68.0 °F - 33.1 °F 27% 29.76 in 10.0 mi North 12.7 mph 21.9 mph N/A   Clear
3:53 PM 66.9 °F - 28.9 °F 24% 29.77 in 10.0 mi North 13.8 mph - N/A   Clear
4:53 PM 68.0 °F - 26.1 °F 21% 29.80 in 10.0 mi NNE 17.3 mph 23.0 mph N/A   Clear
5:53 PM 66.0 °F - 24.1 °F 20% 29.79 in 10.0 mi NE 15.0 mph - N/A   Clear
6:53 PM 62.1 °F - 23.0 °F 22% 29.85 in 10.0 mi NNE 18.4 mph 25.3 mph N/A   Clear
7:53 PM 59.0 °F - 24.1 °F 26% 29.85 in 10.0 mi NNE 16.1 mph - N/A   Clear
8:53 PM 57.9 °F - 24.1 °F 27% 29.86 in 10.0 mi NNE 17.3 mph 26.5 mph N/A   Overcast
9:53 PM 54.0 °F - 28.9 °F 38% 29.91 in 10.0 mi North 24.2 mph 29.9 mph N/A   Overcast
10:53 PM 52.0 °F - 30.9 °F 45% 29.97 in 10.0 mi North 18.4 mph 28.8 mph N/A   Overcast
11:18 PM 48.2 °F - 35.6 °F 62% 29.97 in 10.0 mi NNE 28.8 mph 35.7 mph 0.00 in Rain , Thunderstorm Light Rain
11:51 PM 46.4 °F 38.3 °F 35.6 °F 66% 29.99 in 10.0 mi NNE 23.0 mph 32.2 mph 0.00 in   Overcast
11:53 PM 46.4 °F 38.7 °F 35.6 °F 66% 30.00 in 10.0 mi North 20.7 mph 31.1 mph N/A   Overcast